Showing default

COSMOS 1988 (GLONASS), 19750

Orbit data source: Space-Track

COSMOS 1988 (GLONASS), 19750 is a payload satellite owned by UNKS (CIS) in MEO that was launched on Tue, 10 Jan 1989 UTC via a PROTON-K/DM-2 launch vehicle from the Tyuratam Missile And Space Complex (TTMTR). Payload-class satellites include a variety of spacecraft equipped with specific instruments for various scientific and technological missions. These include communications satellites like Starlink; space stations such as the ISS; scientific satellites like the Hubble; Earth observation satellites from companies like Planet Labs, Umbra, and HawkEye 360; GPS; miniature CubeSats for education and research; and military/defense satellites.

Loading next visibility...
Identifier
19750, 1989-001B
Orbit
MEO
Country
Flag of CISCIS
Related business
Manufacturer
Omsk Av. Zav.
Mission
Non-operational Defense Navigation
Bus & Motor
URAGAN, Unknown motor
Mass
1,300 kg wet, ~1,200 kg dry
Launch date (UTC)
1989-01-10 (37 years ago)
Launch vehicle
PROTON-K/DM-2
Launch site
Tyuratam Missile And Space Complex (TTMTR)
Object type
Payload
Rocket body
Debris
Shape & HBR
Cyl + 2 Pan, 4.2 m
Radar Cross Section
14.707 m², Large (>1 m²)

Expand to show TLE details & history
Last TLE update: 5 days ago

TLE from 5 days ago
0 COSMOS 1988 (GLONASS)
1 19750U 89001B   25253.58560250  .00000033  00000-0  00000-0 0  9994
2 19750  64.7844  82.1977 0014790 217.2678 336.7721  2.13101701285320
Epoch: 2025-09-10T14:03Z
TLE epoch observation values (Epoch: 2025-09-10T14:03:16.056Z)
Latitude
-12.63849°
Longitude
67.57218°
Altitude
19,098.469 km
Speed
3.958 km/s
True Right ascension
17h 52m 59s
True Declination
-12° 37' 05"
Sunlit
Object was in daylight at epoch
Visualization orbit readout
Latitude
Unknown
Longitude
Unknown
Altitude
Unknown
Speed
Unknown
Apparent Right ascension
Unknown
Apparent Declination
Unknown
Sunlit
N/A
Visualization observer readout
Local Sidereal Time
04:04:01
Azimuth
Unknown
Elevation
Unknown
Doppler factor
Unknown
Orbital elements
Apogee altitude
19,167.26 km
Perigee altitude
19,091.808 km
Semi-major axis
25,507.671 km
Eccentricity
0.00148
Inclination
64.7844°
RAAN
82.1977°
Arg. of periapsis
217.2678°
True anomaly
336.70514°
Mean anomaly
336.7721°
Eccentric anomaly
336.73863°
Mean motion
0.53277 °/min
Orbital period
675.72 mins
BSTAR
0
Loading maneuver chart data...
Computing Atmospheric mass density...
Loading historical data...
Loading historical data...
Loading historical data...
Loading historical data...
Loading historical data...
Loading historical data...
Loading historical data...

Documentation

Showing up to 5 results
|